Probability
0 0 0 0 0 0 0 0 0 0 0 0 0 0 0 0 0 0 0 0 0 0 0 0 0 0 0 0 0 0 0 0 0 0 0 0 0 0 0 0 0 0 0
0 0 0 0 0 0 0 0 0 0 0 0 0 0 0 0 0 0 0 0 0 0 0 0 0 0 0 0 0 0 0 0 0 0 0 0 0 0 0 0 0 0 0
0 0 0 0 0 0 0 0 0 0 0 0 0 0 0 0 0 0 0 0 0 0 0 0 0 0 0 0 0 0 0 0 0 0 0 0 0 0 0 0 0 0 0
0 0 0 0 0 0 0 0 0 0 0 0 0 0 0 0 0 0 0 0 0 0 0 0 0 0 0 0 0 0 0 0 0 0 0 0 0 0 0 0 0 0 0
0 0 0 0 0 0 0 0 0 0 0 0 0 0 0 0 0 0 0 0 0 0 0 0 0 0 0 0 0 0 0 0 0 0 0 0 0 0 0 0 0 0 0
0 0 0 0 0 0 0 0 0 0 0 0 0 0 0 0 0 0 0 0 0 0 0 0 0 0 0 0 0 0 0 0 0 0 0 0 0 0 0 0 0 0 0
0 0 0 0 0 0 0 0 0 0 0 0 0 0 0 0 0 0 0 0 0 0 0 0 0 0 0 0 0 0 0 0 0 0 0 0 0 0 0 0 0 0 0
0 0 0 0 0 0 0 0 0 0 0 0 0 0 0 0 0 0 0 0 0 0 0 0 0 0 0 0 0 0 0 0 0 0 0 0 0 0 0 0 0 0 0
0 0 0 0 0 0 0 0 0 0 0 0 0 0 0 0 0 0 0 0 0 0 0 0 0 0 0 0 0 0 0 0 0 0 0 0 0 0 0 0 0 0 0
0 0 0 0 0 0 0 0 0 0 0 0 0 0 0 0 0 0 0 0 0 0 0 0 0 0 0 0 0 0 0 0 0 0 0 0 0 0 0 0 0 0 0
0 0 0 0 0 0 0 0 0 0 0 0 0 0 0 0 0 0 0 0 0 0 0 0 0 0 0 0 0 0 0 0 0 0 0 0 0 0 0 0 0 0 0
0 0 0 0 0 0 0 0 0 0 0 0 0 0 0 0 0 0 0 0 0 0 0 0 0 0 0 0 0 0 0 0 0 0 0 0 0 0 0 0 0 0 0
0 0 0 0 0 0 0 0 0 0 0 0 0 0 0 0 0 0 0 0 0 0 0 0 0 0 0 0 0 0 0 0 0 0 0 0 0 0 0 0 0 0 0
0 0 0 0 0 0 0 0 0 0 0 0 0 0 0 0 0 0 0 0 0 0 0 0 0 0 0 0 0 0 0 0 0 0 0 0 0 0 0 0 0 0 0
0 0 0 0 0 0 0 0 0 0 0 0 0 0 0 0 0 0 0 0 0 0 0 0 0 0 0 0 0 0 0 0 0 0 0 0 0 0 0 0 0 0 0
0 0 0 0 0 0 0 0 0 0 0 0 0 0 0 0 0 0 0 0 0 0 0 0 0 0 0 0 0 0 0 0 0 0 0 0 0 0 0 0 0 0 0
0 0 0 0 0 0 0 0 0 0 0 0 0 0 0 0 0 0 0 0 0 0 0 0 0 0 0 0 0 0 0 0 0 0 0 0 0 0 0 0 0 0 0
0 0 0 0 0 0 0 0 0 0 0 0 0 0 0 0 0 0 0 0 0 0 0 0 0 0 0 0 0 0 0 0 0 0 0 0 0 0 0 0 0 0 0
0 0 0 0 0 0 0 0 0 0 0 0 0 0 0 0 0 0 0 0 0 0 0 0 0 0 0 0 0 0 0 0 0 0 0 0 0 0 0 0 0 0 0
0 0 0 0 0 0 0 0 0 0 0 0 0 0 0 0 0 0 0 0 0 0 0 0 0 0 0 0 0 0 0 0 0 0 0 0 0 0 0 0 0 0 0
0 0 0 0 0 0 0 0 0 0 0 0 0 0 0 0 0 0 0 0 0 0 0 0 0 0 0 0 0 0 0 0 0 0 0 0 0 0 0 0 0 0 0
0 0 0 0 0 0 0 0 0 0 0 0 0 0 0 0 0 0 0 0 0 0 0 0 0 0 0 0 0 0 0 0 0 0 0 0 0 0 0 0 0 0 0
0 0 0 0 0 0 0 0 0 0 0 0 0 0 0 0 0 0 0 0 0 0 0 0 0 0 0 0 0 0 0 0 0 0 0 0 0 0 0 0 0 0 0
0 0 0 0 0 0 0 0 0 0 0 0 0 0 0 0 0 0 0 0 0 0 0 0 0 0 0 0 0 0 0 0 0 0 0 0 0 0 0 0 0 0 0
0 0 0 0 0 0 0 0 0 0 0 0 0 0 0 0 0 0 0 0 0 0 0 0 0 0 0 0 0 0 0 0 0 0 0 0 0 0 0 0 0 0 0
0 0 0 0 0 0 0 0 0 0 0 0 0 0 0 0 0 0 0 0 0 0 0 0 0 0 0 0 0 0 0 0 0 0 0 0 0 0 0 0 0 0 0
Wind_Speed
11 12 11 11 11 11 11 12 11 10 10 11 12 12 12 13 13 13 14 12 14 14 13 14 15 13 11 10 9 10 10 10 13 6 2 4 9 10 9 9 8 9 9
9 9 10 10 9 10 12 12 10 10 10 11 11 11 12 12 12 13 14 14 15 15 15 14 15 11 14 11 10 11 11 11 10 10 3 4 6 8 7 8 7 6 5
6 7 8 8 9 10 10 9 9 9 9 9 10 11 11 11 12 13 14 14 14 14 14 14 14 13 14 11 11 11 9 8 8 7 4 3 2 4 6 5 6 4 6
5 6 7 7 8 8 7 6 7 7 8 8 9 10 10 10 10 11 11 12 12 12 12 12 12 12 13 12 10 10 8 7 6 4 3 3 3 4 5 6 6 6 5
4 5 6 5 4 4 4 4 4 5 6 6 6 7 7 7 8 9 9 10 10 10 10 10 10 11 12 10 8 8 7 7 5 5 4 4 4 5 7 6 6 5 4
4 4 3 3 3 3 3 3 3 4 4 4 5 5 6 5 6 9 8 8 8 8 8 7 7 7 9 10 11 10 9 8 8 6 5 6 7 7 6 7 6 6 5
4 3 3 3 3 3 3 3 3 3 2 3 3 3 4 4 4 5 7 6 5 5 5 5 4 3 4 4 6 7 8 10 10 8 7 8 7 8 9 9 8 7 5
4 3 3 4 4 3 3 3 2 2 2 2 1 1 1 1 2 2 3 4 4 3 3 3 3 3 3 4 3 3 3 4 5 5 6 5 5 7 10 8 7 5 4
4 4 4 5 5 4 4 3 2 2 2 1 1 1 0 1 2 2 1 1 1 1 0 1 1 2 4 5 3 3 2 1 1 3 4 5 8 12 12 8 7 6 3
5 4 4 4 5 5 5 3 3 3 2 2 2 1 1 1 3 3 1 1 1 0 0 1 1 1 2 3 3 3 3 2 2 3 3 5 6 10 14 9 8 7 4
3 3 3 4 4 4 4 3 3 3 3 3 3 2 2 2 3 4 3 1 1 1 0 0 1 1 2 3 3 3 3 3 3 4 3 3 4 4 5 5 5 5 5
3 4 3 3 3 3 4 4 3 4 4 3 3 2 2 2 3 4 4 3 2 2 1 0 0 1 1 2 2 3 5 5 3 3 3 3 3 4 3 4 4 2 2
4 4 4 4 3 3 4 4 3 3 3 3 2 2 1 1 2 4 4 4 4 2 1 1 1 1 1 1 3 6 5 4 4 3 3 2 2 3 3 3 3 3 3
4 4 4 4 4 3 3 3 3 3 3 3 2 2 1 1 1 1 1 2 3 3 2 3 4 4 4 3 3 3 2 2 2 3 2 2 3 3 3 3 3 2 2
4 4 4 4 4 4 3 3 3 2 3 3 2 2 2 1 2 2 2 1 1 2 3 2 2 2 2 2 2 2 1 1 1 1 2 2 3 3 2 2 2 3 3
3 3 3 3 3 4 4 5 9 7 9 9 7 5 2 3 4 4 4 4 4 5 4 2 2 1 1 1 1 1 1 1 1 1 2 2 2 3 3 2 2 3 4
2 2 2 3 3 4 4 4 5 6 10 10 10 8 7 6 6 5 6 6 6 6 3 2 2 1 1 1 0 0 0 0 1 1 2 2 2 3 3 3 4 3 4
2 3 3 3 3 3 3 3 3 4 3 3 6 9 9 8 9 8 8 7 4 4 3 2 1 1 1 0 0 0 0 0 1 1 2 2 3 3 3 4 4 5 5
3 2 2 3 3 3 4 4 4 4 4 3 2 5 7 7 10 11 8 4 3 3 2 2 2 1 1 1 1 0 0 1 1 1 2 2 3 3 3 4 4 5 5
3 5 4 3 3 4 4 4 4 4 4 3 3 3 3 4 4 4 5 4 3 3 2 2 2 2 1 1 1 1 0 1 1 1 1 2 2 2 3 4 4 4 5
3 3 4 4 4 3 3 4 3 4 4 3 2 3 5 3 3 3 3 3 3 3 2 2 2 2 2 2 1 1 1 1 1 1 1 2 2 2 2 3 3 4 4
3 3 3 3 3 3 3 3 3 3 3 3 2 3 6 4 3 3 3 3 2 2 2 2 2 2 2 2 2 1 1 1 1 1 2 2 2 3 3 3 3 3 4
3 4 4 4 4 4 4 4 3 3 3 3 2 2 3 3 2 2 2 2 2 2 2 2 1 2 2 2 2 1 1 1 2 2 2 2 2 2 3 3 4 4 4
4 4 4 4 3 3 3 3 3 3 3 2 2 2 2 2 1 1 1 1 1 2 2 1 1 2 3 3 2 2 2 3 3 2 3 3 3 3 3 3 4 4 4
4 4 3 3 3 3 3 3 2 2 2 2 1 1 1 1 1 1 1 1 2 2 2 2 1 2 3 4 4 4 5 6 5 3 3 3 4 4 4 4 4 4 4
3 3 3 2 2 2 2 2 1 1 1 1 1 1 1 1 1 1 1 1 2 2 2 2 2 3 4 4 5 6 7 7 7 6 4 3 3 3 3 3 4 4 4
Wind_Direction
211 212 213 215 215 216 220 222 222 220 213 214 215 215 217 220 219 221 226 226 229 233 230 231 235 231 233 230 227 227 229 231 250 248 175 164 183 193 192 189 188 196 201
212 209 213 214 211 214 221 223 220 221 218 218 217 218 221 222 221 223 228 229 231 234 233 233 236 233 234 233 230 230 231 226 235 245 192 171 190 195 186 183 186 193 197
205 205 211 213 213 218 222 222 219 220 221 218 217 221 224 224 224 226 229 231 232 234 234 235 237 234 236 234 233 233 232 228 228 233 206 152 146 166 167 172 182 188 197
198 199 208 212 214 219 221 220 219 218 220 220 221 224 226 226 227 229 230 233 235 235 235 236 237 233 236 235 233 233 229 225 217 215 193 156 151 153 164 176 188 192 194
191 199 211 210 206 204 207 211 212 212 219 221 222 225 226 227 230 229 230 233 235 238 238 237 238 237 236 233 231 228 218 218 208 202 196 172 174 168 189 183 191 174 183
189 205 202 183 181 191 197 197 201 211 216 216 220 223 226 229 235 229 229 233 234 237 242 241 240 237 239 237 234 230 218 215 212 205 205 205 202 190 173 173 169 167 196
187 194 184 177 181 188 182 180 199 211 211 218 228 225 230 241 241 233 228 232 237 240 242 244 243 237 232 231 232 230 228 226 214 205 212 211 194 186 174 178 185 184 186
184 189 183 178 181 172 166 178 185 179 195 208 217 230 234 304 309 271 240 230 239 243 237 233 236 236 218 210 208 217 223 225 216 207 213 210 191 175 178 178 171 142 89
193 198 190 176 173 170 176 181 172 162 168 160 131 116 158 337 358 338 242 199 219 255 287 260 235 241 237 213 196 209 219 239 226 195 191 180 172 168 161 145 149 153 165
204 198 181 168 168 173 174 166 158 155 156 141 121 96 86 25 18 23 89 136 160 171 34 9 295 261 251 205 189 195 216 209 154 132 132 148 156 168 171 171 166 168 156
176 160 157 160 161 159 151 146 143 140 135 131 120 91 70 49 34 39 72 117 146 147 137 12 314 299 254 213 187 189 208 167 152 144 135 136 142 158 172 172 172 173 169
148 146 148 146 142 142 143 137 134 138 137 138 129 106 63 41 41 39 54 83 105 125 144 173 288 313 240 193 170 161 148 134 131 136 146 162 170 173 169 160 146 127 117
142 146 142 134 133 136 140 139 135 137 140 140 133 123 94 53 36 40 44 67 85 97 108 99 74 64 83 101 145 140 133 133 141 154 172 177 162 146 132 120 105 100 78
150 147 140 140 132 125 126 129 132 141 143 139 134 132 118 80 38 33 49 66 74 81 79 70 66 70 70 74 100 110 109 138 153 165 159 143 134 142 154 153 157 150 148
143 141 139 137 134 126 112 102 111 92 109 126 126 128 128 105 33 43 71 79 92 111 101 79 69 69 69 66 66 77 86 104 117 132 149 153 160 167 173 162 160 166 189
145 144 144 139 131 126 120 98 78 86 86 85 85 93 84 70 63 67 74 75 87 113 97 89 89 84 86 92 105 96 106 138 151 151 162 171 180 185 183 174 181 197 214
130 132 128 128 131 130 131 133 121 83 74 70 67 68 71 71 68 76 89 89 85 95 85 87 83 78 74 85 82 81 74 180 152 168 180 185 187 192 193 196 200 212 225
87 96 108 117 119 121 121 118 120 123 104 51 37 50 58 67 67 69 83 87 71 66 67 80 81 67 58 82 163 199 214 187 192 200 200 199 200 205 209 211 210 216 225
69 76 85 93 96 100 101 100 100 99 97 85 51 36 36 57 62 60 64 68 78 70 60 57 52 46 30 18 360 331 265 236 241 231 220 218 216 218 225 226 225 225 225
59 68 80 92 93 91 94 101 102 101 98 86 66 37 26 47 53 42 43 51 61 60 51 45 33 26 18 10 2 352 326 292 275 259 258 251 239 232 237 236 233 233 233
59 62 69 79 80 86 92 95 98 100 97 88 58 37 66 76 71 59 50 44 41 36 29 27 21 12 9 9 5 358 334 303 295 287 280 269 259 251 247 244 244 240 242
60 66 67 75 79 80 81 82 87 91 92 88 63 42 55 66 65 59 51 40 30 24 21 29 25 12 8 6 357 352 339 325 317 309 295 282 266 256 250 245 242 238 237
58 68 70 69 74 80 78 75 79 84 84 80 72 57 53 59 57 51 40 24 17 15 15 25 24 5 360 360 357 353 328 302 295 289 286 283 277 270 261 256 251 248 242
57 63 69 70 69 73 78 76 73 74 74 69 59 52 46 49 47 28 7 355 359 359 359 3 359 344 341 342 338 328 304 290 286 277 269 268 267 262 258 255 254 250 248
56 60 64 68 71 73 75 74 71 67 62 54 44 36 30 22 5 342 333 332 335 335 332 330 324 323 320 315 310 304 301 301 293 275 261 254 254 252 249 249 250 251 248
54 57 57 58 62 65 70 71 64 51 40 23 5 337 319 311 304 302 303 302 304 303 304 305 300 299 299 299 296 298 295 290 281 269 254 246 248 248 243 245 245 245 245